Regional Weather Roundup
Issued by NWS Portland, ME

Current Version | Previous Version | Text Only | Print | Product List | Glossary Off
Versions: 1 2 3 4 5 6 7 8 9 10 11 12 13 14 15 16 17 18 19 20 21 22 23 24 25 26 27 28 29 30 31 32 33 34 35 36 37 38 39 40 41 42 43 44 45 46 47 48 49 50
000 ASUS41 KGYX 111110 RWRGYX WEATHER ROUNDUP FOR MAINE AND NEW HAMPSHIRE NATIONAL WEATHER SERVICE GRAY ME 600 AM EST TUE DEC 11 2018 MEZ002-005-006-010-012-015-018-020-021-024-026-027-029-111200- MAINE CITY SKY/WX TMP DP RH WIND PRES REMARKS PORTLAND FAIR 12 7 80 NW6 30.21R SANFORD MOCLDY 6 4 91 CALM 30.19R BAR HARBOR FAIR 6 3 87 CALM 30.22R WISCASSET FAIR 5 2 87 CALM 30.22S ROCKLAND FAIR 7 4 87 CALM 30.21R FRYEBURG FAIR -3 -7 82 CALM 30.17S LEWISTONAUBURN FAIR 1 -3 83 CALM 30.19S AUGUSTA FAIR 7 4 87 CALM 30.19R WATERVILLE FAIR 2 -3 80 MISG 30.16R BANGOR FAIR 6 2 83 CALM 30.19S GREENVILLE N/A 4 -1 80 NE6 30.04F MILLINOCKET FAIR 0 -4 83 NW3 30.17R HOULTON FAIR -7 -9 91 CALM 30.13R PRESQUE ISLE FAIR -16 -20 82 CALM 30.14S FRENCHVILLE CLOUDY -2 -8 76 NW5 30.07R CARIBOU FAIR -6 -11 79 CALM 30.11S $$ NHZ002-005-008-009-011-012-014-111200- NEW HAMPSHIRE CITY SKY/WX TMP DP RH WIND PRES REMARKS PORTSMOUTH MOCLDY 17 11 75 NW5 30.18R ROCHESTER CLOUDY 13 10 88 NW6 30.18R NASHUA FAIR 11 10 96 NW3 30.20R MANCHESTER FAIR 14 9 80 CALM 30.18R CONCORD FAIR 7 3 84 CALM 30.18S LACONIA FAIR 6 2 83 CALM 30.16S PLYMOUTH FAIR 5 3 90 CALM 30.17R BERLIN FAIR -8 -14 74 CALM 30.11S WHITEFIELD FAIR -6 -11 79 CALM 30.11F JAFFREY FAIR 7 5 91 CALM 30.12S KEENE FAIR 6 3 87 CALM 30.18S LEBANON FAIR 6 0 76 CALM 30.16R MT WASHINGTON PTCLDY 10 -13 34 W32 N/A WCI -12 $$ VTZ005-007-008-111200- VERMONT CITY SKY/WX TMP DP RH WIND PRES REMARKS ST JOHNSBURY N/A -2 -6 83 MISG 30.15S MONTPELIER FAIR -1 -4 87 CALM 30.14S BURLINGTON FAIR 7 3 84 CALM 30.16S $$ MAZ007-012-024-CTZ003-RIZ002-NYZ038-NYZ072-111200- SOUTHERN NEW ENGLAND AND NY CITY SKY/WX TMP DP RH WIND PRES REMARKS BOSTON FAIR 24 10 55 NW9 30.20R WORCESTER FAIR 16 10 77 W5 30.12S NANTUCKET FAIR 28 24 85 NW7 30.17R PROVIDENCE FAIR 18 13 80 CALM 30.20R HARTFORD FAIR 13 11 92 CALM 30.19R ALBANY FAIR 15 10 80 CALM 30.19S NEW YORK CITY FAIR 31 19 61 N3 30.17S $$ ANZ081-ANZ082-ANZ150-NHZ014-MEZ023>029-111200- COASTAL MARINE OBSERVATIONS STATION/POSITION TIME TEMP WIND PRES WAVE AIR SEA DIR/SP/G HT/PER (UTC) (F) (DEG/KT/KT) (MB) (FT/S) MOUNT DESERT ROC 1100 22 350/ 5/ 6 1022.8R MATINICUS ROCK 1000 22 30/ 6/ 8 1021.8R ISLE OF SHOALS 1000 26 340/ 11/ 12 1021.4F JEFFREYS LEDGE 1038 46 N/A 2/ 4 CASHES LEDGE BUO 1050 26 46 1022.5R 2/ 5 $$ .............KEY.............. WCI - WIND CHILL TC - TEMPERATURE IN CELSIUS VSB - VISIBILITY IN MILES HX - HEAT INDEX FAIR- INDICATES FEW OR NO CLOUDS BELOW 12,000 FT, WITH NO SIGNIFICANT WEATHER AND/OR OBSTRUCTIONS TO VISIBILITY.

USA.gov is the U.S. government's official web portal to all federal, state and local government web resources and services.